Find Starlink 34967

NORAD ID: 65177 Int'l Des: 2025-175 Owner: SPXS Country: US Constellation: starlink operational
LEOCIRCULARRETROGRADESSO

当前视图

正在加载3D地球...

关于 Starlink 34967

正在加载描述...

即将过境

Passes for default location (London). Set your location on the main map for personalized predictions.

高度历史

Loading altitude history...

两行轨道根数

1 65177U 25175D 26149.54866830 .00006507 00000-0 45445-3 0 9991
2 65177 97.4307 21.8279 0002258 92.9327 267.2159 15.05662308 44800
Epoch: May 29, 2026 • Age: 13 hours

当前状态

高度 551.8 km
速度 7.59 km/s
星下点 23.38°N, 81.35°W
发射日期 Aug 14, 2025
运行时间 0.7 years
类型 internet

技术详情

分类 Payload
质量 575.00 kg
干质量 530.00 kg
总质量 575.00 kg
长度 0.30 m
直径 4.10 m
跨度 29.00 m
形状 Box + pan
制造商 SPXS
平台类型 Starlink V2MO
阶段状态 In Orbit
所有者/国家 SPXS/US

Most Searched